ISS DEB (58229 NORAD) Tracking and Keplerian Element Data

This shows tracking and keplerian element data for the satellite.

Feedback or suggestion? Click here.




ElementValue
Catalog58229
NameISS DEB
Epoch Orbit3421
Epoch Day159.91996909
Epoch Year2024
RAAN337.1053
Inclination51.6242
Eccentricity0.0007824
Argument of Perigee269.8422
Mean Anonmoly90.169
Mean Motion15.96525237
Decay Rate0.00494548
L11 58229U 98067WC 24159.91996909 .00494548 11205-3 11454-2 0 9992
L22 58229 51.6242 337.1053 0007824 269.8422 90.1690 15.96525237 34214



Live tracking and technical data element details for ISS DEB (NORAD 58229). ISS DEB can be tracked NOW for your location showing map with azimuth and elevation plus other details from your city location.







IsCatalogInMostPopularTable: catalog: 58229, numindb: 92
Update: records affected: 1



GetName: 58229 ISS DEB

Hit Count: updated at: Fri, 06 Dec 2024 11:13:30 GMT